Location: ??????
(38.3184°N, 23.6932°E)
Time: 01:15:01
(UTC+00:00)

ATLAS 5 CENTAUR R/B - Pass Details

Date: 16 October 2021
Orbit: 497 x 1159 km, 63.4° (Epoch: 25 November)

Event Time Altitude Azimuth Distance (km) Brightness Sun altitude
Rises 16:55:34 0° 208° (SSW) 2,568 5.1 -14.4°
Reaches altitude 10° 16:57:39 10° 206° (SSW) 1,697 4.2 -14.8°
Maximum altitude 17:01:21 75° 121° (ESE) 542 1.1 -15.6°
Enters shadow 17:04:30 16° 37° (NE) 1,482 3.2 -16.2°
